CZ-3C DEB, 40174

Orbit data source: Space-Track

CZ-3C DEB, 40174 is space debris in HEO originally from a launch on Sun, 31 Oct 2010 UTC launched from the Xichang Space Center, China (XSC). Debris objects in space refer to the collection of defunct objects orbiting the Earth. Examples of debris include non-operational satellites, rocket bodies, and fragments generated from explosions, collisions, or faulty payload assembly.

Loading next visibility...
Identifier
40174, 2010-057AC
Orbit
HEO
Country
Flag of CNCN / PRC
Related business
Manufacturer
CALT
Mission
Spacecraft
Bus & Motor
Unknown
Mass
Unknown
Launch date (UTC)
2010-10-31 (15 years ago)
Launch vehicle
Unknown
Launch site
Xichang Space Center, China (XSC)
Object type
Payload
Rocket body
Debris
Shape & HBR
Unknown shape, 0.2 m
Radar Cross Section
Medium (>0.1 m² and <1 m²)

Expand to show TLE details & history
Last TLE update: 1 month ago

TLE from 1 month ago
0 CZ-3C DEB
1 40174U 10057AC  25267.28437655  .00000279  00000-0  50940-2 0  9999
2 40174  20.3447  42.7443 7083057 271.9972  10.3044  2.34863148 94249
Epoch: 2025-09-24T06:49Z
TLE epoch observation values (Epoch: 2025-09-24T06:49:30.133Z)
Latitude
-6.9458°
Longitude
-82.13248°
Altitude
3,015.952 km
Speed
8.257 km/s
True Right ascension
01h 34m 25s
True Declination
-6° 54' 52"
Sunlit
Object was in full shadow at epoch
Visualization orbit readout
Latitude
Unknown
Longitude
Unknown
Altitude
Unknown
Speed
Unknown
Apparent Right ascension
Unknown
Apparent Declination
Unknown
Sunlit
N/A
Visualization observer readout
Local Sidereal Time
02:48:35
Azimuth
Unknown
Elevation
Unknown
Doppler factor
Unknown
Orbital elements
Apogee altitude
34,469.694 km
Perigee altitude
596.657 km
Semi-major axis
23,911.312 km
Eccentricity
0.70831
Inclination
20.3447°
RAAN
42.7443°
Arg. of periapsis
271.9972°
True anomaly
68.66846°
Mean anomaly
10.3044°
Eccentric anomaly
31.52252°
Mean motion
0.587 °/min
Orbital period
613.29 mins
BSTAR
0.005094
Loading maneuver chart data...
Computing Atmospheric mass density...
Loading historical data...
Loading historical data...
Loading historical data...
Loading historical data...
Loading historical data...
Loading historical data...
Loading historical data...

Documentation

Showing up to 5 results
|